Location: Ripley
(48.3812°N, 115.4473°W)
Time: 10:25:11
(UTC+00:00)

EO-88 - Pass Details

Date: 04 July 2022
Orbit: 454 x 462 km, 97.3° (Epoch: 07 August)

Event Time Altitude Azimuth Distance (km) Brightness Sun altitude
Exits shadow 06:14:14 - 227° (SW) 1,920 ? -15.8°
Reaches altitude 10° 06:15:28 10° 242° (WSW) 1,625 ? -15.9°
Maximum altitude 06:17:06 13° 270° (W) 1,463 ? -16.0°
Drops below altitude 10° 06:18:45 10° 298° (WNW) 1,631 ? -16.1°
Sets 06:21:48 0° 328° (NNW) 2,512 ? -16.3°
